Location: Borotín
(49.5055°N, 14.6142°E)
Time: 12:25:02
(UTC+00:00)

Cosmos 1025 Rocket - Pass Details

Date: 27 May 2022
Orbit: 593 x 618 km, 82.5° (Epoch: 27 June)

Event Time Altitude Azimuth Distance (km) Brightness Sun altitude
Exits shadow 01:00:10 24° 218° (SW) 1,279 4.1 -14.3°
Maximum altitude 01:02:34 50° 284° (WNW) 772 3.4 -14.1°
Drops below altitude 10° 01:06:46 10° 1° (N) 1,953 6.6 -13.7°
Sets 01:09:02 0° 6° (N) 2,857 7.7 -13.5°
